Date String (YYYY-MM-DD hh:mm:ss) UTC,Instrument flags,Ambient pressure (hPa),Sample flow (lpm),Bypass flow (lpm),Sample temperature (°C),Ambient temperature (°C),ASC tube jacket temperature (°C),LED temperature (°C),Box temperature (°C),Sample RH (%),Span deviation,Mass concentration (μg/m³),Mass concentration (μg/m³),Mass concentration (μg/m³)
DateTimeUTC,F1_M11,P_M11,Q1_M11,Q2_M11,T1_M11,T2_M11,T3_M11,T4_M11,T5_M11,U1_M11,ZSPAN_M11,X0_M11,X2_M11,X1_M11
2022-05-26 01:00:00,,0823.7,4.99,0.00,29.6,28.2,00.0,38.5,31.4,13.3,0000.0,0004.79,0002.55,0002.13
2022-05-26 01:01:00,,0823.7,5.01,0.00,29.6,28.3,00.0,38.5,31.5,13.1,0000.0,0004.73,0002.52,0002.13
2022-05-26 01:02:00,,0823.7,5.01,0.00,29.6,28.5,00.0,38.5,31.5,13.2,0000.0,0004.69,0002.53,0002.13
2022-05-26 01:03:00,,0823.7,5.00,0.00,29.7,28.6,00.0,38.5,31.6,13.7,0000.0,0004.70,0002.54,0002.14
2022-05-26 01:04:00,,0823.7,5.01,0.00,29.7,28.7,00.0,38.5,31.6,14.1,0000.0,0005.88,0002.55,0002.13
2022-05-26 01:05:00,,0823.6,5.01,0.00,29.7,28.8,00.0,38.5,31.6,13.7,0000.0,0005.67,0002.55,0002.13
2022-05-26 01:06:00,,0823.6,4.99,0.00,29.8,28.8,00.0,38.6,31.7,13.1,0000.0,0005.76,0002.56,0002.14
2022-05-26 01:07:00,,0823.6,5.01,0.00,29.8,28.9,00.0,38.6,31.7,13.3,0000.0,0006.24,0002.59,0002.15
2022-05-26 01:08:00,,0823.7,5.00,0.00,29.8,28.9,00.0,38.6,31.7,13.0,0000.0,0006.40,0002.64,0002.17
2022-05-26 01:09:00,,0823.7,5.01,0.00,29.8,29.0,00.0,38.6,31.7,13.4,0000.0,0006.59,0002.62,0002.18
2022-05-26 01:10:00,,0823.7,5.00,0.00,29.8,29.0,00.0,38.6,31.8,13.2,0000.0,0007.23,0002.64,0002.17
2022-05-26 01:11:00,,0823.7,4.99,0.00,29.9,29.1,00.0,38.7,31.7,13.3,0000.0,0007.45,0002.62,0002.17
2022-05-26 01:12:00,,0823.7,5.01,0.00,29.9,29.0,00.0,38.7,31.7,13.2,0000.0,0007.54,0002.65,0002.17
2022-05-26 01:13:00,,0823.7,5.00,0.00,29.8,28.2,00.0,38.6,31.5,13.1,0000.0,0007.57,0002.63,0002.17
2022-05-26 01:14:00,,0823.7,5.00,0.00,29.8,27.7,00.0,38.5,31.4,13.1,0000.0,0007.61,0002.64,0002.17
2022-05-26 01:15:00,,0823.7,4.99,0.00,29.7,27.6,00.0,38.5,31.3,13.2,0000.0,0007.58,0002.66,0002.17
2022-05-26 01:16:00,,0823.7,5.00,0.00,29.6,27.6,00.0,38.5,31.3,13.2,0000.0,0007.35,0002.69,0002.18
2022-05-26 01:17:00,,0823.7,5.01,0.00,29.6,27.7,00.0,38.5,31.3,13.4,0000.0,0006.58,0002.68,0002.17
2022-05-26 01:18:00,,0823.8,4.99,0.00,29.6,27.9,00.0,38.5,31.3,13.3,0000.0,0006.13,0002.70,0002.18
2022-05-26 01:19:00,,0823.8,5.00,0.00,29.6,28.0,00.0,38.5,31.4,13.3,0000.0,0006.23,0002.67,0002.17
2022-05-26 01:20:00,,0823.7,4.99,0.00,29.6,28.1,00.0,38.5,31.4,13.4,0000.0,0006.91,0002.67,0002.17
2022-05-26 01:21:00,,0823.7,5.01,0.00,29.6,28.2,00.0,38.5,31.4,13.7,0000.0,0006.39,0002.69,0002.17
2022-05-26 01:22:00,,0823.8,5.00,0.00,29.6,28.3,00.0,38.5,31.4,13.4,0000.0,0006.07,0002.68,0002.18
2022-05-26 01:23:00,,0823.8,5.00,0.00,29.6,28.4,00.0,38.5,31.4,13.2,0000.0,0005.80,0002.64,0002.18
2022-05-26 01:24:00,,0823.7,4.99,0.00,29.6,28.5,00.0,38.5,31.4,13.1,0000.0,0006.06,0002.70,0002.19
2022-05-26 01:25:00,,0823.8,5.01,0.00,29.6,28.6,00.0,38.5,31.5,13.1,0000.0,0007.25,0002.69,0002.19
2022-05-26 01:26:00,,0823.8,5.00,0.00,29.6,28.6,00.0,38.5,31.5,13.0,0000.0,0006.60,0002.68,0002.19
2022-05-26 01:27:00,,0823.8,5.00,0.00,29.6,28.7,00.0,38.5,31.5,13.2,0000.0,0006.23,0002.66,0002.19
2022-05-26 01:28:00,,0823.8,5.00,0.00,29.7,28.7,00.0,38.6,31.5,13.4,0000.0,0006.28,0002.64,0002.18
2022-05-26 01:29:00,,0823.8,5.00,0.00,29.7,28.8,00.0,38.6,31.5,13.5,0000.0,0006.30,0002.60,0002.18
2022-05-26 01:30:00,,0823.8,5.00,0.00,29.7,28.8,00.0,38.6,31.6,13.5,0000.0,0006.82,0002.62,0002.17
2022-05-26 01:31:00,,0823.7,5.00,0.00,29.7,28.8,00.0,38.6,31.6,13.6,0000.0,0006.23,0002.61,0002.16
2022-05-26 01:32:00,,0823.8,5.00,0.00,29.7,28.9,00.0,38.6,31.6,13.5,0000.0,0006.17,0002.59,0002.16
2022-05-26 01:33:00,,0823.8,5.00,0.00,29.7,28.9,00.0,38.6,31.6,13.6,0000.0,0006.13,0002.58,0002.15
2022-05-26 01:34:00,,0823.8,5.00,0.00,29.8,28.9,00.0,38.6,31.6,13.7,0000.0,0006.18,0002.60,0002.16
2022-05-26 01:35:00,,0823.8,5.01,0.00,29.8,28.4,00.0,38.6,31.5,13.7,0000.0,0005.94,0002.54,0002.15
2022-05-26 01:36:00,,0823.8,5.00,0.00,29.7,27.6,00.0,38.5,31.3,14.1,0000.0,0004.81,0002.53,0002.14
2022-05-26 01:37:00,,0823.8,5.00,0.00,29.6,27.4,00.0,38.5,31.2,14.1,0000.0,0004.46,0002.54,0002.14
2022-05-26 01:38:00,,0823.8,5.01,0.00,29.5,27.4,00.0,38.5,31.2,14.3,0000.0,0004.52,0002.55,0002.14
2022-05-26 01:39:00,,0823.8,5.00,0.00,29.5,27.6,00.0,38.4,31.2,14.3,0000.0,0004.52,0002.56,0002.13
2022-05-26 01:40:00,,0823.8,4.99,0.00,29.5,27.7,00.0,38.4,31.2,14.5,0000.0,0004.45,0002.57,0002.13
2022-05-26 01:41:00,,0823.8,5.00,0.00,29.5,27.9,00.0,38.4,31.3,14.4,0000.0,0004.27,0002.52,0002.12
2022-05-26 01:42:00,,0823.8,5.00,0.00,29.5,28.0,00.0,38.4,31.3,14.3,0000.0,0003.40,0002.50,0002.11
2022-05-26 01:43:00,,0823.8,5.00,0.00,29.5,28.2,00.0,38.4,31.3,14.1,0000.0,0003.52,0002.51,0002.12
2022-05-26 01:44:00,,0823.9,5.00,0.00,29.5,28.3,00.0,38.4,31.4,14.0,0000.0,0003.52,0002.51,0002.11
2022-05-26 01:45:00,,0823.9,5.01,0.00,29.6,28.4,00.0,38.4,31.4,14.0,0000.0,0003.51,0002.50,0002.10
2022-05-26 01:46:00,,0823.9,5.01,0.00,29.6,28.5,00.0,38.5,31.4,13.8,0000.0,0003.62,0002.55,0002.10
2022-05-26 01:47:00,,0823.9,5.00,0.00,29.6,28.6,00.0,38.5,31.5,13.6,0000.0,0003.59,0002.52,0002.09
2022-05-26 01:48:00,,0824.0,4.99,0.00,29.6,28.7,00.0,38.5,31.5,13.7,0000.0,0003.54,0002.50,0002.10
2022-05-26 01:49:00,,0824.0,5.00,0.00,29.6,28.7,00.0,38.5,31.5,13.8,0000.0,0003.53,0002.49,0002.09
2022-05-26 01:50:00,,0824.0,5.01,0.00,29.6,28.8,00.0,38.5,31.5,13.7,0000.0,0003.59,0002.48,0002.08
2022-05-26 01:51:00,,0824.0,5.00,0.00,29.7,28.8,00.0,38.5,31.6,13.7,0000.0,0003.69,0002.47,0002.08
2022-05-26 01:52:00,,0824.0,4.99,0.00,29.7,28.8,00.0,38.5,31.6,13.7,0000.0,0003.85,0002.49,0002.08
2022-05-26 01:53:00,,0824.1,5.00,0.00,29.7,28.9,00.0,38.6,31.6,13.7,0000.0,0003.85,0002.54,0002.08
2022-05-26 01:54:00,,0824.1,4.99,0.00,29.7,28.9,00.0,38.6,31.6,13.5,0000.0,0003.80,0002.54,0002.07
2022-05-26 01:55:00,,0824.1,5.00,0.00,29.7,28.9,00.0,38.6,31.6,13.5,0000.0,0004.02,0002.60,0002.09
2022-05-26 01:56:00,,0824.1,5.01,0.00,29.7,28.9,00.0,38.6,31.6,13.5,0000.0,0004.11,0002.62,0002.10
2022-05-26 01:57:00,,0824.1,5.00,0.00,29.8,28.9,00.0,38.6,31.6,13.6,0000.0,0004.08,0002.61,0002.11
2022-05-26 01:58:00,,0824.1,5.00,0.00,29.8,28.9,00.0,38.6,31.6,13.8,0000.0,0004.31,0002.63,0002.12
2022-05-26 01:59:00,,0824.1,4.99,0.00,29.8,28.4,00.0,38.6,31.5,13.9,0000.0,0005.73,0002.65,0002.12
